Dewpoint
70 73 78 78 78 77 77 78 79 79 79 79 79 78 78 77 77 76 76 75 75 75 75 74 73 73 74 74 73 73 74 74 73 74 74 73 73 73 72 71 70 67 71
70 73 78 78 78 77 78 78 78 79 79 79 78 78 78 78 76 76 76 75 75 75 75 74 74 74 73 74 73 74 74 74 75 74 73 73 73 73 72 70 71 71 72
70 72 74 78 78 77 78 78 78 78 77 78 78 78 77 77 76 76 75 75 75 74 74 74 74 74 73 74 74 74 74 75 75 73 73 70 70 72 71 70 72 70 71
70 71 71 78 78 78 77 78 78 77 76 77 77 77 76 76 76 75 75 75 74 74 74 74 74 74 74 74 75 75 74 74 74 74 70 68 67 72 72 72 71 72 72
71 71 73 79 78 77 77 78 78 78 77 76 76 76 76 77 76 75 75 75 75 75 74 74 74 74 74 74 74 75 75 75 74 72 71 71 70 71 72 72 71 71 71
72 71 77 79 78 77 77 77 77 77 77 77 76 76 77 76 75 75 74 74 74 74 74 74 74 74 73 74 75 75 75 74 74 70 71 71 71 73 73 72 71 71 71
73 72 75 79 78 78 78 78 77 77 77 76 76 76 76 76 76 75 75 75 74 74 74 73 74 74 74 75 75 75 75 74 70 71 71 70 71 74 73 72 72 71 72
72 72 74 77 78 78 78 77 77 77 76 76 75 75 76 76 76 76 75 75 74 74 74 74 73 74 74 74 75 75 75 74 71 70 70 71 73 74 73 73 73 71 72
73 74 75 75 77 78 78 77 77 77 76 76 76 76 76 76 75 75 74 75 75 74 74 73 74 74 74 74 75 75 75 73 70 71 70 69 75 74 73 73 73 72 72
74 75 75 76 76 77 76 78 78 77 76 76 76 75 75 75 75 74 76 75 75 74 74 74 74 75 75 75 75 74 74 73 70 71 71 68 75 74 74 73 72 73 73
73 74 75 76 77 78 78 78 78 76 76 76 76 75 75 72 72 72 75 75 74 73 74 74 74 75 75 75 74 75 73 70 70 70 69 74 76 74 74 74 74 74 73
71 73 74 75 75 75 75 77 77 76 76 76 76 76 73 73 74 72 74 75 74 74 74 74 73 74 74 75 71 73 70 71 70 71 70 74 75 74 74 75 75 73 73
72 72 75 75 75 75 75 76 76 74 75 76 76 78 77 77 75 72 73 72 73 74 72 72 72 73 72 74 75 72 73 72 69 70 71 74 75 74 74 74 75 73 72
72 71 73 75 76 76 76 75 77 77 78 77 77 76 76 76 75 74 72 74 75 73 74 74 73 73 73 73 72 73 73 73 70 70 71 74 75 75 75 74 74 74 73
72 73 73 75 75 76 76 75 77 75 74 77 77 76 72 70 71 76 74 73 73 73 73 73 73 74 74 74 74 73 72 72 72 69 69 74 75 75 75 75 74 74 74
72 73 74 74 75 76 75 76 76 77 76 74 74 76 73 71 72 75 75 75 75 74 72 72 72 72 73 73 72 73 73 72 73 71 67 70 75 75 75 75 74 75 74
72 73 73 74 74 75 75 76 77 76 74 73 72 74 73 75 75 75 74 72 72 76 75 73 73 73 72 72 72 73 72 73 72 72 70 70 71 74 74 74 74 74 75
73 73 73 73 74 74 75 74 73 72 72 71 72 72 73 73 73 74 75 70 71 74 75 73 72 70 70 70 71 74 75 73 73 73 71 70 71 69 72 74 73 74 74
71 70 70 72 73 73 73 74 74 74 72 72 72 72 74 73 73 72 70 73 74 70 70 70 73 73 69 68 69 72 74 74 73 72 72 71 71 71 69 73 73 73 73
69 69 69 70 69 72 73 73 73 72 72 70 70 70 71 71 72 73 71 71 71 68 69 69 70 69 69 68 67 68 73 72 74 72 72 71 70 71 71 72 71 71 73
67 68 69 69 69 70 71 72 72 71 72 72 73 73 72 72 73 73 71 71 71 70 70 72 72 70 68 69 67 67 69 71 71 71 71 71 71 71 72 72 71 70 70
66 68 67 69 69 68 70 71 72 72 72 71 72 72 71 71 71 71 71 71 72 71 71 71 71 70 67 68 65 68 65 67 69 70 71 70 71 71 71 72 72 73 72
64 66 68 68 68 68 68 71 71 72 72 70 70 69 70 69 70 71 70 71 72 70 69 69 71 69 67 68 70 69 66 59 68 69 71 70 71 71 71 72 73 73 73
64 64 68 68 68 67 69 71 70 70 68 68 66 67 68 69 68 69 70 70 71 70 68 68 71 72 72 67 68 68 68 66 68 65 67 69 71 71 72 71 71 72 73
66 66 65 66 67 67 70 72 70 69 67 67 67 68 69 69 69 68 69 70 71 70 70 68 69 72 70 70 68 66 68 70 68 64 61 64 68 68 69 70 70 71 72
65 65 64 66 68 70 71 70 68 67 68 66 67 66 66 66 68 70 69 70 70 70 70 71 70 71 70 70 69 67 66 67 69 69 67 66 62 64 66 68 69 69 70
Lifted_Index
-5 -6 -8 -8 -8 -8 -8 -8 -9 -9 -9 -8 -8 -8 -7 -7 -6 -6 -6 -6 -6 -6 -5 -5 -5 -4 -4 -4 -4 -3 -3 -3 -3 -3 -2 -2 -2 -2 -1 -1 -1 -1 -1
-5 -6 -7 -8 -8 -8 -8 -8 -9 -9 -9 -8 -8 -8 -7 -7 -6 -6 -6 -6 -6 -6 -5 -5 -5 -5 -4 -4 -4 -4 -4 -3 -3 -3 -2 -2 -2 -2 -1 -1 -1 -1 -1
-5 -5 -7 -8 -8 -8 -8 -8 -8 -8 -8 -8 -8 -8 -7 -7 -7 -6 -6 -6 -6 -5 -5 -5 -5 -5 -4 -4 -4 -4 -4 -4 -3 -3 -2 -2 -2 -2 -1 -1 -1 -1 -1
-5 -5 -6 -7 -8 -8 -8 -8 -8 -8 -8 -8 -8 -8 -7 -7 -7 -7 -6 -6 -6 -6 -6 -5 -5 -5 -5 -4 -4 -4 -4 -4 -4 -3 -2 -2 -2 -2 -1 -1 -1 -1 -1
-5 -5 -6 -7 -8 -8 -8 -8 -8 -8 -8 -8 -8 -8 -8 -8 -7 -7 -7 -6 -6 -6 -6 -6 -5 -5 -5 -5 -5 -4 -4 -4 -4 -3 -3 -2 -2 -2 -2 -1 -1 -1 -1
-5 -5 -6 -8 -8 -8 -8 -8 -8 -8 -8 -8 -8 -8 -8 -8 -8 -7 -7 -7 -7 -6 -6 -6 -5 -5 -5 -5 -5 -5 -5 -4 -4 -3 -3 -3 -3 -2 -2 -2 -1 -1 -1
-5 -6 -7 -8 -8 -8 -8 -8 -8 -8 -8 -7 -7 -8 -8 -8 -8 -8 -7 -7 -7 -7 -6 -6 -6 -5 -5 -5 -5 -5 -5 -4 -4 -3 -3 -3 -3 -3 -3 -2 -2 -1 -1
-6 -6 -7 -7 -8 -8 -8 -8 -8 -8 -8 -7 -7 -8 -8 -8 -8 -8 -8 -7 -7 -7 -6 -6 -6 -6 -5 -5 -5 -5 -5 -4 -4 -3 -3 -3 -3 -3 -3 -3 -2 -2 -2
-6 -6 -7 -7 -8 -8 -8 -8 -8 -8 -8 -7 -7 -8 -8 -8 -8 -8 -8 -8 -8 -7 -7 -6 -6 -6 -6 -5 -5 -5 -5 -4 -4 -4 -3 -3 -3 -4 -3 -3 -3 -3 -3
-6 -6 -7 -7 -7 -8 -8 -8 -8 -8 -8 -8 -8 -8 -8 -8 -8 -8 -8 -8 -8 -8 -7 -7 -6 -6 -6 -5 -5 -5 -5 -4 -4 -4 -4 -3 -4 -4 -4 -3 -3 -3 -3
-6 -6 -7 -7 -7 -8 -8 -8 -8 -8 -8 -8 -8 -8 -7 -7 -7 -7 -8 -8 -8 -8 -7 -7 -6 -6 -6 -5 -5 -5 -4 -4 -4 -4 -4 -4 -4 -4 -4 -4 -4 -4 -4
-6 -7 -7 -7 -7 -7 -8 -8 -8 -8 -8 -8 -8 -8 -8 -7 -7 -7 -8 -8 -8 -8 -8 -7 -6 -6 -6 -5 -5 -4 -4 -4 -4 -4 -4 -4 -4 -4 -4 -4 -4 -3 -3
-7 -7 -7 -7 -7 -7 -8 -8 -8 -8 -8 -8 -8 -8 -8 -7 -7 -7 -7 -8 -8 -8 -8 -7 -6 -6 -6 -6 -5 -5 -5 -4 -4 -4 -4 -4 -4 -4 -4 -4 -4 -3 -3
-7 -7 -6 -6 -7 -7 -7 -8 -8 -8 -8 -8 -8 -7 -7 -6 -6 -6 -7 -8 -8 -8 -8 -8 -7 -6 -6 -6 -5 -5 -5 -5 -4 -3 -4 -4 -4 -4 -4 -4 -4 -3 -3
-8 -8 -7 -6 -6 -7 -7 -7 -7 -7 -7 -7 -7 -6 -5 -4 -4 -5 -7 -8 -8 -8 -8 -8 -7 -7 -7 -6 -6 -5 -5 -5 -4 -3 -3 -4 -4 -4 -4 -4 -4 -4 -4
-8 -8 -7 -7 -6 -6 -6 -7 -7 -7 -7 -6 -6 -6 -4 -3 -3 -5 -6 -7 -7 -8 -8 -7 -7 -7 -7 -6 -6 -6 -5 -5 -5 -4 -3 -4 -4 -4 -4 -4 -4 -4 -4
-8 -7 -7 -7 -6 -6 -6 -6 -6 -6 -6 -6 -6 -6 -5 -4 -4 -5 -6 -6 -7 -7 -7 -7 -7 -7 -6 -6 -6 -6 -5 -5 -5 -4 -4 -4 -4 -4 -4 -4 -4 -4 -4
-7 -6 -6 -6 -6 -6 -6 -6 -6 -6 -6 -6 -6 -6 -5 -5 -5 -5 -5 -6 -6 -6 -6 -6 -6 -6 -6 -5 -5 -6 -6 -5 -5 -4 -4 -4 -4 -4 -4 -3 -3 -3 -3
-5 -5 -4 -4 -5 -5 -5 -5 -5 -5 -5 -5 -5 -5 -5 -5 -5 -5 -5 -5 -5 -5 -5 -5 -5 -5 -5 -4 -5 -5 -5 -5 -5 -5 -5 -4 -4 -4 -4 -4 -3 -3 -3
-4 -3 -3 -3 -3 -4 -4 -5 -5 -5 -5 -5 -5 -4 -4 -4 -5 -5 -5 -5 -5 -5 -5 -5 -5 -5 -4 -4 -4 -4 -5 -5 -5 -5 -5 -5 -4 -4 -4 -4 -3 -3 -3
-3 -2 -2 -2 -2 -3 -3 -4 -5 -5 -5 -5 -5 -4 -4 -4 -4 -4 -4 -4 -4 -4 -4 -4 -4 -4 -4 -4 -4 -4 -4 -4 -5 -5 -5 -5 -5 -5 -4 -4 -4 -4 -3
-3 -2 -1 -1 -1 -1 -2 -4 -5 -5 -5 -5 -4 -4 -3 -3 -3 -3 -3 -4 -4 -3 -3 -3 -3 -3 -3 -4 -3 -3 -3 -3 -4 -5 -5 -5 -5 -5 -5 -4 -4 -4 -4
-2 -1 -1 -0 -0 -0 -1 -3 -4 -4 -4 -4 -3 -3 -2 -2 -2 -2 -2 -3 -3 -2 -2 -2 -3 -3 -3 -3 -3 -3 -3 -3 -3 -4 -5 -5 -5 -5 -5 -5 -5 -5 -5
-2 -1 -1 -0 0 -0 -2 -3 -4 -4 -3 -3 -2 -2 -2 -1 -1 -2 -2 -2 -2 -2 -1 -1 -2 -2 -3 -3 -3 -3 -3 -2 -3 -3 -4 -5 -5 -5 -5 -5 -5 -5 -5
-2 -1 -1 0 -0 -1 -3 -4 -4 -3 -2 -1 -1 -1 -1 -1 -1 -2 -2 -2 -2 -2 -2 -1 -2 -2 -3 -3 -3 -3 -3 -3 -3 -3 -3 -3 -4 -4 -4 -5 -5 -4 -4
-2 -1 -0 0 -0 -2 -3 -4 -3 -3 -2 -1 -1 -1 -1 -1 -2 -2 -2 -2 -2 -2 -2 -2 -2 -2 -3 -3 -3 -3 -3 -3 -3 -2 -2 -2 -3 -3 -4 -4 -4 -4 -4